Overview Statistics Trail Chart Weather Telemetry Raw packets
 

This is the latest recevied weather packets stored in our database for station/object VK2TRB. If no packets are shown the sender has not sent any weather packets the latest 10 day(s).

<< 3 4 5 6 7 8 9 >>
Time Temp. Humidity Pressure Rain* Wind** Luminosity Snow
1788496619 17.78° C 66% 1015.3 hPa 0 mm - - -
1788495721 17.78° C 66% 1015.4 hPa 0 mm - - -
1788494820 17.78° C 66% 1015.4 hPa 0 mm - - -
1788493920 17.78° C 65% 1015.6 hPa 0 mm - - -
1788493020 17.22° C 68% 1015.8 hPa 0 mm - - -
1788492119 17.22° C 69% 1016 hPa 0 mm - - -
1788491221 16.67° C 69% 1016.1 hPa 0 mm - - -
1788490320 17.22° C 69% 1016.7 hPa 0 mm - - -
1788489420 17.22° C 69% 1016.7 hPa 0 mm - - -
1788488520 17.78° C 68% 1017 hPa 0 mm - - -
1788487621 17.22° C 68% 1017 hPa 0 mm - - -
1788486721 17.78° C 66% 1017.5 hPa 0 mm - - -
1788485820 17.22° C 66% 1017.6 hPa 0 mm - - -
1788484920 16.67° C 69% 1018.1 hPa 0 mm - - -
1788484021 16.67° C 69% 1018.5 hPa 0 mm - - -
1788483120 15.56° C 72% 1018.8 hPa 0 mm - - -
1788482220 15.56° C 72% 1019.1 hPa 0 mm - - -
1788481320 15.56° C 74% 1019.2 hPa 0 mm - - -
1788480420 15° C 75% 1019 hPa 0 mm - - -
1788479520 14.44° C 77% 1019 hPa 0 mm - - -
1788478620 14.44° C 77% 1019.1 hPa 0 mm - - -
1788477720 13.89° C 83% 1019.1 hPa 0 mm - - -
1788476820 12.78° C 89% 1019.1 hPa 0 mm - - -
1788475921 12.22° C 94% 1019 hPa 0 mm - - -
1788475020 11.67° C 96% 1018.9 hPa 0 mm - - -

* Rain latest hour (hover to see other rain measurements)
** Current wind speed in m/s (hover to see current wind gust speed)